Bryce Canyon, UT

12:50 AM MST on December 10, 2019 (GMT -0700)
Bryce Canyon

Weather History for KBCE - October, 2019

Change the Weather History Date:

Sunday, October 20, 2019

  Actual Average Record
Temperature  
Mean Temperature 36 °F -  
Max Temperature 45 °F 57 °F 73 °F (2003)
Min Temperature 21 °F 25 °F 14 °F (1976)
Degree Days  
Heating Degree Days 30    
Moisture  
Dew Point 12 °F    
Average Humidity 41    
Maximum Humidity 73    
Minimum Humidity 19    
Precipitation  
Precipitation 0.00 in - - ()
Sea Level Pressure  
Sea Level Pressure 29.93 in    
Wind  
Wind Speed 16 mph (NW)    
Max Wind Speed 23 mph    
Max Gust Speed 32 mph    
Visibility 10 miles    
Events Snow    
Averages and records for this station are not official NWS values.
T = Trace of Precipitation, MM = Missing Value Source: NWS Daily Summary

Daily Weather History Graph

Daily Weather History Graph

Search for Another Location

Airport or City:

Astronomy

Oct. 20, 2019 Rise Set
Actual Time 7:41 AM MDT 6:44 PM MDT
Civil Twilight 7:14 AM MDT 7:11 PM MDT
Nautical Twilight 6:44 AM MDT 7:41 PM MDT
Astronomical Twilight 6:14 AM MDT 8:12 PM MDT
Moon No Moon Rise 2:08 PM MDT (10/20)
Length of Visible Light 11h 56m
Length of Day
11h 03m
Waning Gibbous, 58% of the Moon is Illuminated
Oct 20
Waning Gibbous
Oct 21
Last Quarter
Oct 27
New
Nov 4
First Quarter
Nov 12
Full

Hourly Weather History & Observations

Time (MDT) Temp. Windchill Dew Point Humidity Pressure Visibility Wind Dir Wind Speed Gust Speed Precip Events Conditions
12:53 AM 42.1 °F 33.6 °F 27.0 °F 55% 29.70 in 10.0 mi NW 18.4 mph 31.1 mph N/A   Mostly Cloudy
1:53 AM 37.0 °F 27.7 °F 28.9 °F 73% 29.75 in 9.0 mi NW 16.1 mph 24.2 mph 0.00 in Snow Light Snow
2:53 AM 36.0 °F 29.6 °F 25.0 °F 64% 29.75 in 10.0 mi NW 8.1 mph - 0.00 in   Overcast
3:53 AM 34.0 °F 26.0 °F 21.0 °F 59% 29.75 in 10.0 mi NW 10.4 mph - N/A   Clear
4:53 AM 32.0 °F 22.1 °F 21.9 °F 66% 29.78 in 10.0 mi NW 13.8 mph - N/A   Clear
5:53 AM 30.9 °F 20.2 °F 19.0 °F 61% 29.83 in 10.0 mi NW 15.0 mph - N/A   Clear
6:53 AM 28.0 °F 18.6 °F 16.0 °F 61% 29.88 in 10.0 mi NW 10.4 mph - N/A   Clear
7:53 AM 28.0 °F 17.0 °F 14.0 °F 56% 29.89 in 10.0 mi WNW 13.8 mph - N/A   Clear
8:53 AM 32.0 °F 21.2 °F 14.0 °F 48% 29.89 in 10.0 mi NW 16.1 mph 27.6 mph N/A   Clear
9:53 AM 35.1 °F 24.5 °F 14.0 °F 42% 29.91 in 10.0 mi NNW 18.4 mph 26.5 mph N/A   Clear
10:53 AM 37.0 °F 25.9 °F 12.9 °F 37% 29.92 in 10.0 mi NNW 23.0 mph 28.8 mph N/A   Clear
11:53 AM 39.0 °F 28.5 °F 10.9 °F 32% 29.93 in 10.0 mi NW 23.0 mph 32.2 mph N/A   Clear
12:53 PM 41.0 °F 31.6 °F 10.9 °F 29% 29.95 in 10.0 mi NW 20.7 mph 31.1 mph N/A   Clear
1:53 PM 43.0 °F 35.7 °F 8.1 °F 24% 29.95 in 10.0 mi WNW 15.0 mph 25.3 mph N/A   Clear
2:53 PM 44.1 °F 35.7 °F 6.1 °F 21% 29.95 in 10.0 mi WNW 20.7 mph 26.5 mph N/A   Clear
3:53 PM 43.0 °F 34.0 °F 5.0 °F 21% 29.96 in 10.0 mi WNW 21.9 mph 31.1 mph N/A   Clear
4:53 PM 43.0 °F 35.1 °F 3.0 °F 19% 29.99 in 10.0 mi NW 17.3 mph 25.3 mph N/A   Clear
5:53 PM 39.9 °F 30.8 °F 3.9 °F 22% 30.02 in 10.0 mi NW 18.4 mph - N/A   Clear
6:53 PM 36.0 °F 26.7 °F 3.9 °F 26% 30.06 in 10.0 mi NW 15.0 mph - N/A   Clear
7:53 PM 35.1 °F 26.4 °F 5.0 °F 28% 30.08 in 10.0 mi WNW 12.7 mph - N/A   Clear
8:53 PM 30.9 °F 21.2 °F 3.0 °F 31% 30.08 in 10.0 mi WNW 12.7 mph - N/A   Clear
9:53 PM 27.0 °F 18.0 °F 1.9 °F 34% 30.09 in 10.0 mi NNW 9.2 mph - N/A   Clear
10:53 PM 27.0 °F 16.7 °F 3.9 °F 37% 30.09 in 10.0 mi WNW 11.5 mph - N/A   Clear
11:53 PM 21.9 °F 13.4 °F 1.9 °F 42% 30.09 in 10.0 mi Variable 6.9 mph - N/A   Clear